User: anonymous   Login
Location: Wien
(48.2082°N, 16.3738°E)
Time: 05:13:54
(UTC+01:00)
Language:

UWE-3 - Orbit

View from above orbital plane
View from above orbital plane
View from above satellite
View from above satellite

Ground track
Ground track

The orbit data is extracted from the following two-line orbital elements,

1 39446U 13066AG  19322.91804430 +.00000190 +00000-0 +31957-4 0  9997
2 39446 097.5864 319.5488 0068530 280.3200 079.0291 14.78452202321315
Epoch (UTC): 18 November 2019 22:01:59
Eccentricity: 0.0068530
inclination: 97.5864°
perigee height: 586 km
apogee height: 682 km
right ascension of ascending node: 319.5488°
argument of perigee: 280.3200°
revolutions per day: 14.78452202
mean anomaly at epoch: 79.0291°
orbit number at epoch: 32131

The dashed part of the orbit path shows where the satellite is in the earth's shadow,  

DLR